This demonstration page uses our WeatherBlox Daily Observations layout. Learn more.

Left ArrowRight Arrow

Hourly Observations for June 28, 2020

Temp ( °F °C ) Dew Point ( °F °C ) Humidity (%) Winds ( mph kmh ) Pressure ( in mb ) Visibility ( mi km ) Precip ( " mm )
12:53 am 00:53 Cloudy with Light Rain 62 16.7 59 15 90 90 E 8 13 29.52 1000 8 13 0.02 0.51
1:53 am 01:53 Mostly Cloudy 58 14.4 56 13.3 93 93 E 20 31 29.53 1000 10 16 0.01 0.25
2:53 am 02:53 Cloudy 59 15 56 13.3 90 90 E 14 22 29.57 1001 10 16 N/A
3:00 am 03:00 Cloudy 57 14 55 13 94 94 E 14 22 29.56 1001 10 16 N/A
3:21 am 03:21 Cloudy 59 15 55 12.8 87 87 E 16 26 29.54 1000 10 16 N/A
3:53 am 03:53 Cloudy 59 15 55 12.8 87 87 ESE 12 19 29.54 1000 10 16 N/A
4:30 am 04:30 Cloudy with Nearby Thunderstorms 59 15 54 12.2 83 83 ESE 12 19 29.52 1000 10 16 N/A
4:53 am 04:53 Cloudy with Rain 58 14.4 54 12.2 87 87 NW 20 31 29.56 1001 7 11 0.00 0.00
5:00 am 05:00 Cloudy with Strong Thunderstorms 54 12.2 52 11.1 93 93 NW 26 43 29.60 1002 3 5 0.07 1.78
5:06 am 05:06 Cloudy with Strong Thunderstorms 54 12.2 51 10.6 90 90 NNW 12 19 29.60 1002 2 3 0.17 4.32
5:09 am 05:09 Cloudy with Nearby Thunderstorms 54 12.2 51 10.6 90 90 N 7 11 29.60 1002 2 3 0.29 7.37
5:12 am 05:12 Cloudy with Heavy Rain 53 11.7 51 10.6 93 93 N 9 15 29.59 1002 2 2 0.32 8.13
5:20 am 05:20 Cloudy with Heavy Rain 53 11.7 50 10 89 89 NNE 13 20 29.58 1002 3 5 0.44 11.18
5:53 am 05:53 Mostly Cloudy 55 12.8 51 10.6 87 87 NNW 8 13 29.56 1001 10 16 0.44 11.18
6:53 am 06:53 Cloudy 55 12.8 52 11.1 90 90 WNW 5 7 29.61 1003 10 16 0.02 0.51
7:50 am 07:50 Mostly Cloudy 57 14 54 12 88 88 NW 14 22 29.62 1003 10 16 N/A
7:53 am 07:53 Mostly Cloudy 57 13.9 53 11.7 87 87 NW 15 24 29.63 1003 10 16 N/A
8:53 am 08:53 Cloudy 58 14.4 53 11.7 84 84 WNW 15 24 29.64 1004 10 16 N/A
9:24 am 09:24 Cloudy 57 14 52 11 82 82 NW 15 24 29.62 1003 10 16 N/A
9:53 am 09:53 Mostly Cloudy 62 16.7 52 11.1 70 70 NNW 15 24 29.62 1003 10 16 N/A
10:13 am 10:13 Partly Cloudy 62 16.7 51 10.6 67 67 NNW 10 17 29.59 1002 10 16 N/A
10:53 am 10:53 Mostly Cloudy 63 17.2 51 10.6 65 65 NNE 12 19 29.62 1003 10 16 N/A
11:53 am 11:53 Mostly Cloudy 63 17.2 50 10 63 63 NW 12 19 29.64 1004 10 16 N/A
12:53 pm 12:53 Sunny 67 19.4 49 9.4 53 53 WNW 10 17 29.63 1003 10 16 N/A
1:53 pm 13:53 Mostly Sunny 67 19.4 49 9.4 53 53 NNW 13 20 29.62 1003 10 16 N/A
2:53 pm 14:53 Mostly Sunny 68 20 47 8.3 47 47 NW 12 19 29.62 1003 10 16 N/A
3:53 pm 15:53 Partly Cloudy 70 21.1 46 7.8 42 42 NW 13 20 29.61 1003 10 16 N/A
4:53 pm 16:53 Mostly Sunny 67 19.4 47 8.3 49 49 NNW 13 20 29.61 1003 10 16 N/A
5:53 pm 17:53 Sunny 65 18.3 47 8.3 52 52 NNW 18 30 29.63 1003 10 16 N/A
6:53 pm 18:53 Sunny 64 17.8 47 8.3 54 54 NW 14 22 29.63 1003 10 16 N/A
7:53 pm 19:53 Sunny 61 16.1 49 9.4 65 65 NW 15 24 29.65 1004 10 16 N/A
8:53 pm 20:53 Sunny 59 15 50 10 72 72 NW 12 19 29.65 1004 10 16 N/A
9:53 pm 21:53 Clear 58 14.4 50 10 75 75 NW 8 13 29.67 1005 10 16 N/A
10:53 pm 22:53 Mostly Cloudy 58 14.4 50 10 75 75 WNW 7 11 29.67 1005 10 16 N/A
11:53 pm 23:53 Cloudy 57 13.9 50 10 78 78 NNW 6 9 29.68 1005 10 16 N/A

Powered by AerisWeather